Location: *
(44.1106°N, 2.6189°E)
Time: 17:45:24
(UTC+00:00)

Daily predictions for brighter satellites

Satellite Brightness Start Highest point End
(mag) Time Altitude Azimuth Time Altitude Azimuth Time Altitude Azimuth
SL-8 R/B 4.1 18:39:47 10° WNW 18:44:31 57° NNE 18:49:13 10° E
Cosmos 1943 Rocket 2.6 18:39:56 10° NNW 18:45:14 44° ENE 18:50:32 10° SE
Meteor 1-24 Rocket 3.9 18:41:20 10° NNW 18:46:48 78° W 18:52:06 10° S
STARLINK-1073 3.8 18:42:49 10° NW 18:46:56 63° NNE 18:51:02 10° ESE
Cosmos 1709 Rocket 4.0 18:40:58 10° N 18:47:08 66° E 18:53:12 10° SSE
ADEOS Rocket 3.3 18:41:09 10° N 18:47:44 77° WNW 18:53:36 10° SSW
Cosmos 1602 Rocket 4.1 18:44:56 10° N 18:49:09 40° ENE 18:53:17 10° SSE
Cosmos 1470 2.9 18:47:03 10° S 18:50:50 53° E 18:54:39 10° NNE
STARLINK-1121 3.7 18:47:46 10° NW 18:51:55 68° NNE 18:56:02 10° ESE
Ariane Rocket 3.1 18:50:31 10° SSE 18:55:29 59° ENE 19:00:28 10° N
STARLINK-1106 3.7 18:52:44 10° NW 18:56:53 73° NNE 19:01:01 10° ESE
Abrixas rocket 2.4 18:54:42 10° W 18:57:38 60° NNW 19:00:35 10° ENE
Cosmos 1544 Rocket 3.8 18:54:05 10° SSW 18:58:29 78° W 19:02:57 10° N
Aureole 2 Rocket 3.1 18:57:00 10° N 19:00:15 34° ENE 19:03:25 10° SE
STARLINK-1112 3.6 18:57:43 10° NW 19:01:53 78° NE 19:05:49 11° ESE
Cosmos 1943 3.9 18:57:36 10° SSE 19:02:29 31° ESE 19:07:24 10° NE
ATLAS 2AS CENTAUR R/B 3.9 18:55:51 10° NNW 19:02:34 31° NNE 19:08:47 10° E
ISS -3.6 19:01:03 10° NW 19:04:24 62° NNE 19:07:16 13° ESE
STARLINK-1128 3.6 19:02:42 10° NW 19:06:52 84° NE 19:10:37 12° ESE
SL-08 RB Rocket 4.3 19:03:42 10° SE 19:07:51 37° ENE 19:12:04 10° N
SJ-11-01 4.3 19:03:26 10° SSE 19:08:08 88° E 19:12:54 10° NNW
USA 234 3.9 19:02:51 10° ENE 19:08:35 32° SE 19:14:17 10° S
HJ-1C 4.0 19:05:44 10° S 19:09:02 60° W 19:12:23 10° NNW
STARLINK-1113 3.6 19:07:40 10° NW 19:11:51 89° S 19:15:23 14° SE
SPOT 3 Rocket 4.2 19:07:19 10° SE 19:12:03 36° ENE 19:16:47 10° N
STARLINK-1119 3.6 19:12:40 10° WNW 19:16:50 83° SSW 19:20:11 15° SE
SJ-6B 3.1 19:14:19 10° SSE 19:18:18 53° ENE 19:22:20 10° N
SeaSat 1 4.1 19:14:03 10° NNE 19:18:35 38° NW 19:23:06 10° WSW
Cosmos 1758 Rocket 4.1 19:14:35 10° N 19:18:39 37° ENE 19:22:13 12° SE
STARLINK-1114 3.7 19:17:38 10° WNW 19:21:48 77° SW 19:24:58 17° SE
IRIDIUM 106 4.4 19:17:55 10° N 19:23:04 56° E 19:28:11 10° SSE
SL-16 R/B 3.5 19:18:18 10° SW 19:23:40 43° WNW 19:29:05 10° NNE
MOS 1 Rocket 4.4 19:19:30 10° NNE 19:24:12 30° E 19:28:56 10° SSE
STARLINK-1130 (DARKSAT) 3.8 19:22:37 10° WNW 19:26:45 71° SW 19:29:44 18° SE
Cosmos 1818 4.0 19:22:28 10° S 19:27:27 39° ESE 19:32:30 10° NE
CZ-2C R/B 2.9 19:22:54 10° SSE 19:27:53 87° ENE 19:32:42 10° NNW
Cosmos 1606 Rocket 4.2 19:24:19 10° SSE 19:28:18 34° E 19:32:20 10° NNE
MOS 1 4.3 19:23:18 10° SSE 19:28:56 87° ENE 19:34:37 10° NNW
Cosmos 1758 4.0 19:25:03 10° SSW 19:29:05 59° W 19:33:08 10° N
BREEZE M DEB (TANK) 4.4 19:18:18 10° SW 19:31:12 51° SSE 19:34:31 16° E
STARLINK-1084 3.8 19:27:36 10° WNW 19:31:43 65° SW 19:34:31 19° SE
H-2A R/B 4.3 19:26:11 10° WSW 19:33:09 15° SW 19:36:26 10° S
Cosmos 2228 3.5 19:30:26 10° SSE 19:34:21 36° E 19:38:19 10° NNE
SL-24 R/B 4.0 19:31:52 10° NNE 19:36:00 49° E 19:39:42 10° S
CZ-2C R/B 3.1 19:31:31 10° NNE 19:36:16 35° E 19:40:59 10° SSE
STARLINK-1098 4.0 19:32:37 10° WNW 19:36:42 59° SW 19:39:19 21° SE
Cosmos 2084 Rocket 4.0 19:32:17 10° NW 19:36:42 60° WSW 19:40:26 14° SSE
Cosmos 1656 Rocket 4.2 19:31:39 10° NNW 19:37:02 42° ENE 19:40:14 22° ESE
Meteor 1-21 Rocket 4.1 19:32:43 10° N 19:38:18 88° E 19:43:50 10° S
Cosmos 1992 Rocket 3.9 19:33:30 10° NNW 19:38:44 88° ENE 19:43:32 12° SSE
ARGOS 3.3 19:35:30 10° S 19:40:54 79° WSW 19:46:19 10° NNW
STARLINK-1123 4.1 19:37:37 10° WNW 19:41:40 54° SW 19:44:06 22° SSE
MetOp-A 4.2 19:38:31 14° SSE 19:43:04 62° ENE 19:48:22 10° N
SL-4 R/B 2.1 19:40:25 10° SSW 19:43:31 34° SE 19:43:45 33° SE
BREEZE-M DEB (TANK) 4.2 19:37:56 10° WNW 19:44:24 50° N 19:45:57 26° ENE
COSMOS 2455 4.3 19:40:39 10° NNW 19:45:24 23° NE 19:48:18 17° ENE
Cosmos 1603 3.6 19:40:15 10° SSW 19:45:53 86° ESE 19:51:32 10° NNE
USA 186 2.9 19:42:50 10° S 19:46:07 45° W 19:49:19 10° NNW
STARLINK-1097 4.2 19:42:36 10° WNW 19:46:37 50° SW 19:48:52 23° SSE
Cosmos 1726 2.0 19:42:58 10° S 19:46:41 82° E 19:50:27 10° N
Cosmos 1340 Rocket 4.1 19:47:47 24° ENE 19:47:47 24° ENE 19:50:29 10° NE
H-2A R/B 2.8 19:44:38 10° S 19:49:47 54° W 19:54:51 10° NNW
STARLINK-1099 4.4 19:47:37 10° WNW 19:51:35 45° SW 19:53:40 24° SSE
Meteor 1-16 Rocket 4.0 19:47:23 10° S 19:52:43 75° E 19:58:13 10° NNE
Resurs 1-3 3.6 19:51:24 25° SSE 19:53:53 66° ENE 19:58:15 10° N
Cosmos 1328 4.0 19:50:19 10° N 19:54:14 51° ENE 19:55:27 37° SE
Cosmos 2184 Rocket 4.0 19:52:21 10° N 19:58:42 89° ENE 20:04:56 10° S
Meteor 2-10 4.3 19:56:56 10° SSW 20:02:19 77° W 20:07:55 10° N
Cosmos 1703 3.1 20:01:45 10° N 20:05:43 74° E 20:06:51 44° SSE
Cosmos 1953 3.7 20:02:52 10° SSW 20:06:36 40° WNW 20:10:23 10° N
Cosmos 1461 4.4 20:03:14 10° NNW 20:07:03 26° NE 20:07:55 24° ENE
DMSP B5D2-2 4.0 20:05:32 10° NNE 20:10:47 85° ESE 20:16:01 10° SSW
Resurs 01 Rocket 1.5 20:12:28 44° SSE 20:13:49 75° ENE 20:18:14 10° N
Cosmos 1437 4.0 20:16:14 10° NNW 20:19:03 35° W 20:19:45 30° SW
Cosmos 2058 Rocket 3.1 20:18:20 53° SE 20:19:05 62° E 20:23:33 10° NNE
Cosmos 2154 Rocket 3.9 20:14:11 10° N 20:20:35 85° E 20:24:20 27° S
NOSS 3-4 (A) 3.9 20:14:55 10° NNW 20:21:51 64° NE 20:24:57 37° ESE
NOSS 3-4 (C) 3.9 20:15:01 10° NNW 20:21:58 63° NE 20:25:03 37° ESE
Cosmos 2369 Rocket 3.2 20:17:50 10° NW 20:23:11 43° WSW 20:27:18 16° S
Nadezhda 1 Rocket 4.1 20:19:45 10° S 20:26:10 83° W 20:32:35 10° N
SL-8 R/B 3.8 20:22:25 10° WNW 20:27:08 60° SSW 20:27:50 53° S
Cosmos 962 Rocket 4.5 20:21:25 10° N 20:27:32 60° E 20:29:12 45° SE
Cosmos 1943 Rocket 3.9 20:24:04 10° NW 20:28:45 28° WSW 20:33:26 10° SSW
Cosmos 1908 3.6 20:27:25 32° SSW 20:29:01 62° W 20:32:52 10° N
Meteor 1-11 4.2 20:26:15 10° NNW 20:32:03 86° W 20:34:22 38° S
SL-8 Rocket 4.3 20:26:05 10° N 20:32:06 45° ENE 20:32:55 42° E
Abrixas rocket 3.9 20:30:49 10° WNW 20:32:54 29° NNW 20:32:54 29° NNW
SL-24 R/B - RUBIN 2 4.1 20:31:29 10° SSW 20:36:52 64° ESE 20:43:01 10° NE
Cosmos 1726 Rocket 4.3 20:34:23 16° SSW 20:37:47 53° WNW 20:42:08 10° N
SPOT 5 4.3 20:39:20 22° NE 20:39:20 22° NE 20:41:37 10° NNE
ISS -1.5 20:38:25 10° W 20:40:16 19° WSW 20:40:16 19° WSW
Cosmos 2366 rocket 4.4 20:36:38 10° N 20:42:25 42° ENE 20:42:31 42° ENE
Cosmos 1190 Rocket 3.9 20:40:52 41° S 20:42:46 82° ESE 20:48:06 10° NNE
Cosmos 1943 4.4 20:41:01 10° SW 20:46:21 42° WNW 20:51:45 10° NNE
Spot 2 Rocket 3.3 20:46:22 74° SE 20:46:46 81° ENE 20:51:54 10° NNW
Aureole 1 Rocket 4.4 20:41:41 10° SSW 20:49:37 77° WNW 20:55:58 10° NNE
Cosmos 1140 Rocket 3.3 20:51:22 80° SSE 20:51:37 85° ESE 20:56:49 10° NNE
USA 234 3.3 20:45:26 10° NE 20:51:59 79° NW 20:58:30 10° WSW
ATLAS 2AS CENTAUR R/B 2.7 20:46:51 10° NW 20:54:27 83° WSW 20:56:14 55° SSE
MetOp-B 4.2 20:57:15 61° SSW 20:58:04 72° WSW 21:03:27 10° NNW
BREEZE M DEB (TANK) 4.3 21:02:08 41° ENE 21:02:08 41° ENE 21:10:17 10° ENE
Terra 3.2 21:07:37 28° NNE 21:07:37 28° NNE 21:10:23 10° N
Cosmos 921 Rocket 4.0 21:06:45 10° NNW 21:09:39 42° NW 21:09:39 42° NW
Cosmos 407 Rocket 4.4 21:09:47 10° SW 21:14:39 45° WNW 21:19:35 10° N
SPOT 1/Viking Rocket 3.7 21:17:02 71° NNW 21:17:02 71° NNW 21:21:42 10° NNW
CZ-2C R/B 4.3 21:11:58 10° N 21:16:28 31° WNW 21:20:57 10° SW
ERS-1 Rocket 3.6 21:27:58 53° NNW 21:27:58 53° NNW 21:31:48 10° NNW
COSMOS 2455 2.9 21:25:58 10° NNW 21:31:27 72° WNW 21:31:27 72° WNW
Cosmos 1980 Rocket 4.3 21:30:49 10° N 21:33:52 15° NE 21:33:52 15° NE
Resurs 01 Rocket 4.4 21:50:02 10° W 21:50:50 11° W 21:51:59 10° WNW
Cosmos 2218 Rocket 4.4 21:46:53 10° NNW 21:52:40 55° W 21:52:40 55° W
ATLAS 5 CENTAUR R/B 4.2 22:02:17 15° NNE 22:02:17 15° NNE 22:03:15 10° NNE
Terra 4.4 22:46:29 16° NW 22:46:29 16° NW 22:47:49 10° NW
Cosmos 1697 Rocket 4.4 22:45:58 10° NNW 22:48:42 30° NNW 22:48:42 30° NNW
Mayak 2.0 22:49:45 10° N 22:49:57 11° N 22:49:57 11° N
SL-16 R/B 4.3 22:57:45 10° N 23:00:33 20° NNE 23:00:33 20° NNE
CZ-4C R/B 3.5 22:57:03 10° NNW 23:02:43 50° N 23:02:43 50° N
Cosmos 2322 Rocket 4.4 23:09:05 10° N 23:11:48 20° NNE 23:11:48 20° NNE
Cosmos 1980 Rocket 4.1 23:13:24 10° NNW 23:15:38 25° NNW 23:15:38 25° NNW
Cosmos 2344 4.3 23:28:44 10° NW 23:38:32 86° NE 23:38:51 85° E
Cosmos 2082 Rocket 4.2 23:44:34 23° N 23:44:34 23° N 23:46:42 10° NNE
